Location: Anaheim Mobile Home Estates
(33.8153°N, 117.9967°W)
Time: 16:56:34
(UTC+00:00)

Cosmos 1953 - Pass Details

Date: 05 August 2024
Orbit: 506 x 524 km, 82.5° (Epoch: 06 September)

Event Time Altitude Azimuth Distance (km) Brightness Sun altitude
Rises 12:10:07 0° 179° (S) 2,592 5.5 -11.6°
Reaches altitude 10° 12:12:14 10° 177° (S) 1,713 4.6 -11.2°
Maximum altitude 12:15:56 66° 95° (E) 558 2.6 -10.5°
Drops below altitude 10° 12:19:43 10° 13° (NNE) 1,734 5.5 -9.8°
Sets 12:21:52 0° 10° (N) 2,628 6.4 -9.4°
